Wind_Speed
24 22 21 21 20 18 18 19 17 16 13 13 14 12 8 8 5 7 6 4 1 6 5 4 5 3 8 4 6 7 10 8 10 13 8 16 15 17 9 10 3 5 11
25 22 22 21 18 18 17 18 16 17 15 13 14 15 6 9 5 6 5 1 4 3 5 5 4 2 1 8 5 13 11 9 11 10 10 8 14 10 5 2 8 8 9
28 26 24 22 19 19 18 18 18 18 17 15 10 17 18 8 13 3 6 3 3 2 6 6 3 3 6 7 10 7 11 11 11 13 14 13 11 5 12 5 8 6 8
31 25 28 24 22 18 17 20 21 21 19 15 14 12 19 12 5 9 8 6 4 3 5 5 3 2 2 11 10 12 10 12 16 13 10 11 12 9 6 10 2 6 6
32 37 28 21 26 17 16 22 23 24 21 18 15 14 16 14 16 9 8 4 3 4 2 5 5 3 3 1 6 13 13 14 12 17 17 12 17 14 12 7 6 4 4
32 33 27 21 29 24 16 21 23 24 22 20 18 15 17 16 7 13 10 6 5 6 4 4 3 3 6 3 4 9 14 14 10 13 18 21 19 16 11 10 5 5 4
49 33 24 27 29 28 18 21 23 24 23 21 19 18 16 15 16 11 8 6 3 7 6 2 1 1 4 4 6 5 6 10 8 7 16 14 18 18 12 11 10 5 4
33 38 32 30 33 30 22 21 23 24 23 21 18 17 17 16 15 14 12 14 7 8 7 1 1 3 1 3 4 4 4 5 6 8 11 17 14 22 18 18 17 15 5
19 30 31 26 34 33 27 20 24 23 21 19 19 18 17 16 14 15 17 12 12 9 6 7 4 5 4 3 1 1 1 1 2 4 9 13 11 14 24 20 21 15 13
36 31 41 38 27 33 28 23 21 23 20 19 18 17 15 15 14 14 12 12 11 13 5 11 7 7 6 4 3 2 4 1 1 3 7 10 13 11 11 19 23 23 20
34 27 35 27 35 38 36 30 18 24 22 22 20 18 16 15 14 13 12 11 11 13 13 9 6 6 6 6 6 4 2 2 2 4 3 7 13 15 15 15 15 26 26
19 19 25 36 34 39 36 42 32 22 24 23 23 22 20 18 16 14 13 12 12 13 14 12 11 9 10 9 6 7 6 6 6 4 4 4 7 11 14 14 15 15 24
15 19 17 18 32 33 36 37 44 34 26 25 24 21 22 19 16 16 16 14 14 14 14 14 12 12 13 13 10 9 10 10 9 7 7 6 5 6 10 13 15 15 16
12 17 17 19 23 26 30 31 33 30 32 30 29 24 24 21 17 20 18 17 18 16 16 16 16 14 14 13 13 13 12 13 13 12 11 9 7 7 8 8 10 12 15
16 17 17 15 23 21 33 35 34 32 34 30 20 23 24 24 22 22 22 21 23 21 20 19 18 17 16 15 14 15 14 14 16 15 14 13 11 10 11 10 9 9 10
16 16 15 15 14 12 7 28 25 25 29 30 25 23 22 22 25 27 26 24 23 23 22 23 21 21 21 17 17 16 17 17 15 15 17 16 15 13 15 14 13 13 13
10 9 7 7 6 6 10 11 13 22 30 24 23 28 29 26 24 29 30 28 27 26 26 24 24 24 23 22 21 20 20 20 21 20 18 19 19 18 18 18 17 17 17
13 12 10 8 7 6 8 7 11 17 24 31 31 33 33 33 32 31 31 32 30 29 29 29 26 27 27 24 24 24 25 25 25 25 25 24 22 22 23 21 20 20 20
16 15 13 12 10 8 8 8 9 9 13 17 25 32 37 40 38 35 34 35 34 34 32 30 28 28 26 27 28 28 29 30 28 28 28 29 29 25 24 28 30 26 24
16 15 15 16 14 14 13 13 13 13 13 13 13 14 14 18 28 35 39 38 38 37 35 34 34 32 33 32 32 32 33 34 33 32 32 31 31 30 31 33 32 33 31
20 21 22 23 21 20 20 21 22 22 20 20 20 19 19 19 18 18 23 31 35 38 36 35 33 31 31 36 36 36 37 37 36 35 34 33 33 32 33 34 37 36 35
23 23 24 25 25 26 25 25 27 27 28 29 28 28 26 25 25 23 21 20 23 33 38 38 37 37 36 34 35 35 36 39 40 39 37 36 36 36 35 35 35 36 36
28 25 24 24 26 24 24 25 26 27 29 31 33 33 33 33 32 30 30 27 26 26 26 36 41 41 39 40 37 36 35 35 37 40 40 40 38 40 39 38 35 34 34
26 24 24 25 25 24 24 24 26 27 27 28 28 29 33 36 37 37 36 35 33 33 32 31 31 36 42 46 46 44 42 39 38 38 38 42 44 41 42 43 40 39 38
22 20 19 21 21 21 22 23 23 23 24 26 28 29 31 32 34 38 41 42 41 40 40 38 37 37 36 37 42 43 43 44 45 41 40 44 44 43 44 44 45 44 40
19 21 21 22 23 23 23 23 24 22 20 18 18 20 21 23 28 34 38 40 44 47 48 45 44 43 42 41 39 41 46 52 54 52 49 45 45 46 45 45 48 43 43
Wind_Direction
189 180 176 187 194 196 191 198 185 169 166 164 164 146 155 135 124 131 114 79 108 168 158 169 154 113 113 113 138 128 101 100 112 112 107 61 68 49 74 81 58 103 121
191 188 179 190 210 199 197 199 192 179 171 183 166 135 163 165 156 149 135 101 80 140 157 165 183 170 126 123 166 159 133 126 149 136 125 114 75 56 347 83 172 152 137
198 202 185 194 217 218 202 199 194 187 181 185 192 165 172 200 146 134 147 134 80 93 180 132 194 175 162 132 162 123 132 133 142 146 121 129 145 81 45 37 138 154 146
200 208 198 191 210 229 205 198 193 193 190 190 185 170 164 184 159 153 162 144 119 112 124 128 140 261 169 143 152 168 159 141 147 139 135 153 119 105 99 27 66 179 139
211 198 219 189 196 233 216 198 195 194 192 188 190 172 175 149 173 188 178 151 152 133 118 111 135 181 228 136 101 201 160 146 142 155 155 163 135 99 93 20 36 210 157
200 214 214 194 191 230 238 197 196 195 192 193 182 187 180 160 195 206 213 179 176 153 130 107 145 123 147 162 144 166 176 183 189 152 152 160 151 144 143 157 77 4 304
198 195 203 184 192 221 239 197 193 192 190 191 190 192 194 206 195 199 194 212 124 182 120 102 116 95 119 118 122 150 186 204 201 173 165 163 162 189 164 158 145 199 309
199 189 209 194 191 217 236 212 194 191 190 194 195 196 196 200 202 198 201 221 210 189 136 61 259 240 168 101 125 135 158 196 191 199 196 195 193 164 193 183 174 187 159
216 208 192 206 184 212 229 233 195 192 192 195 196 197 198 202 213 211 204 223 241 240 199 219 199 238 209 170 168 110 82 141 183 202 206 203 189 171 201 187 193 182 188
186 193 204 187 189 203 223 232 207 198 198 198 202 203 201 208 207 213 211 208 223 254 201 213 207 221 213 208 214 197 160 210 264 236 216 205 196 196 201 208 204 201 194
201 208 206 206 187 196 208 203 240 199 204 206 205 207 207 209 219 219 225 220 224 251 251 253 246 239 236 222 224 243 293 176 266 281 264 206 222 233 236 206 217 208 203
207 219 218 220 196 186 195 197 207 217 207 213 215 213 213 215 220 231 233 234 235 238 248 256 257 253 250 256 237 246 245 232 233 265 268 273 237 232 233 243 238 245 220
202 213 217 205 207 204 205 199 207 194 208 221 223 220 216 218 231 237 245 241 239 240 247 250 253 252 251 257 252 251 256 258 257 244 250 250 258 243 245 252 256 259 257
194 179 182 184 193 214 222 186 198 206 212 207 206 221 229 232 232 249 250 252 253 248 249 250 251 250 256 258 262 264 261 263 261 266 263 260 259 260 256 256 259 258 262
183 184 190 197 209 219 220 221 218 214 214 222 222 222 209 217 231 239 251 255 257 256 257 257 259 261 261 266 271 275 275 272 274 273 272 271 263 263 261 262 264 266 268
199 213 222 223 223 230 272 210 221 222 228 234 235 228 227 231 229 232 241 249 256 258 262 262 266 270 271 271 272 271 274 277 274 275 275 277 276 264 266 267 266 266 267
179 181 176 170 177 185 213 201 224 237 242 246 256 248 249 250 245 241 242 242 245 253 253 264 266 269 271 270 269 270 271 271 274 272 269 272 274 278 271 268 270 271 277
208 210 215 220 205 197 170 184 204 224 228 226 239 242 245 247 252 249 248 246 248 248 249 256 261 262 271 271 266 266 266 266 265 268 271 271 269 273 280 280 272 270 270
215 216 214 217 225 218 218 222 225 226 217 227 236 242 245 248 247 248 250 251 248 247 251 251 253 258 264 269 268 265 264 265 266 265 264 267 270 272 268 271 279 280 275
226 228 233 237 234 238 241 244 246 246 248 253 255 260 264 266 256 254 255 251 249 248 250 256 256 258 262 263 264 268 268 265 264 264 266 267 269 269 271 274 272 268 276
247 247 249 251 250 247 246 248 253 257 259 262 262 262 264 268 270 272 267 265 252 247 249 251 253 258 267 265 261 262 265 267 269 268 268 270 269 268 271 271 270 272 274
252 258 260 261 261 259 258 258 256 259 259 258 260 263 265 267 268 268 269 271 268 256 249 248 251 261 265 262 260 260 261 262 263 262 263 263 262 265 265 264 264 268 273
258 261 261 262 264 267 266 263 262 260 260 260 260 260 260 261 263 265 265 264 264 265 262 254 253 255 253 257 265 265 265 265 267 268 265 263 262 264 263 263 263 261 265
265 266 263 264 265 266 265 264 266 268 268 266 264 265 264 262 261 258 261 263 262 261 262 265 266 262 257 261 265 269 266 262 263 274 275 269 267 263 266 267 267 269 270
269 266 267 269 270 269 266 265 265 270 270 266 266 264 261 262 266 265 260 259 260 264 264 262 262 264 267 265 262 259 258 261 260 260 266 267 267 268 266 264 267 268 265
265 271 272 270 272 272 274 271 267 270 272 269 268 270 272 274 273 270 265 264 262 258 259 262 264 260 259 261 263 264 261 260 261 262 266 264 264 261 271 262 269 263 264
Height
3202 3204 3207 3208 3207 3207 3210 3213 3216 3219 3224 3226 3227 3231 3233 3234 3233 3236 3237 3237 3239 3240 3242 3242 3243 3245 3245 3248 3247 3250 3251 3252 3253 3253 3255 3259 3258 3259 3259 3260 3259 3260 3262
3200 3202 3205 3207 3206 3206 3209 3212 3216 3219 3222 3225 3227 3231 3234 3234 3236 3237 3238 3239 3240 3240 3242 3241 3242 3245 3247 3247 3250 3250 3250 3253 3255 3255 3257 3259 3260 3263 3263 3263 3263 3263 3263
3197 3200 3203 3205 3205 3204 3207 3210 3215 3218 3221 3223 3226 3229 3232 3233 3236 3237 3239 3239 3240 3242 3240 3244 3245 3246 3247 3248 3249 3251 3252 3253 3255 3257 3260 3260 3261 3264 3265 3264 3265 3265 3266
3196 3197 3199 3202 3203 3202 3205 3208 3212 3216 3219 3222 3225 3228 3232 3235 3236 3237 3238 3239 3240 3242 3243 3244 3246 3245 3246 3248 3249 3252 3253 3254 3256 3258 3260 3262 3263 3265 3266 3267 3267 3267 3267
3193 3193 3198 3201 3202 3202 3204 3206 3210 3213 3217 3220 3223 3227 3231 3232 3234 3235 3236 3239 3240 3241 3244 3245 3245 3245 3245 3247 3247 3251 3253 3252 3254 3255 3259 3262 3264 3265 3266 3267 3268 3268 3268
3187 3192 3197 3200 3200 3201 3204 3205 3208 3212 3216 3218 3222 3225 3229 3230 3233 3235 3236 3238 3242 3241 3243 3246 3245 3246 3246 3247 3249 3250 3252 3253 3255 3256 3257 3260 3264 3265 3266 3267 3269 3269 3270
3175 3186 3193 3197 3198 3199 3203 3204 3207 3210 3214 3217 3221 3224 3227 3230 3231 3233 3235 3239 3236 3243 3242 3246 3247 3247 3247 3246 3247 3249 3252 3253 3254 3256 3257 3258 3260 3265 3266 3269 3268 3270 3270
3178 3182 3191 3195 3198 3198 3201 3204 3206 3209 3212 3215 3219 3222 3224 3227 3230 3232 3234 3237 3241 3242 3243 3247 3248 3248 3247 3247 3248 3249 3250 3251 3253 3255 3257 3258 3259 3261 3264 3267 3266 3269 3269
3177 3174 3185 3193 3196 3197 3200 3203 3206 3209 3211 3214 3216 3219 3222 3224 3227 3231 3234 3236 3239 3243 3244 3246 3246 3247 3248 3248 3248 3249 3249 3250 3251 3253 3255 3256 3258 3259 3262 3264 3265 3266 3267
3167 3173 3172 3179 3193 3196 3198 3199 3204 3208 3210 3212 3214 3217 3219 3222 3225 3229 3232 3236 3237 3239 3235 3241 3243 3245 3247 3247 3248 3248 3247 3249 3251 3252 3253 3254 3256 3257 3257 3262 3263 3264 3266
3167 3171 3168 3169 3178 3196 3194 3194 3199 3204 3206 3209 3211 3213 3216 3219 3221 3225 3230 3234 3236 3235 3237 3240 3242 3243 3244 3246 3247 3247 3247 3248 3250 3251 3251 3252 3254 3256 3256 3255 3257 3261 3262
3167 3169 3170 3178 3169 3165 3187 3186 3195 3198 3200 3203 3206 3208 3211 3214 3218 3222 3227 3231 3234 3235 3237 3237 3239 3241 3243 3246 3246 3246 3246 3247 3248 3250 3250 3250 3252 3253 3253 3253 3254 3255 3257
3163 3167 3170 3174 3175 3183 3184 3181 3179 3188 3192 3200 3209 3211 3211 3210 3214 3219 3224 3228 3231 3233 3234 3236 3237 3240 3242 3243 3245 3245 3244 3246 3247 3247 3249 3249 3250 3250 3251 3251 3252 3253 3253
3162 3165 3169 3173 3177 3178 3183 3159 3189 3189 3190 3198 3191 3204 3212 3211 3210 3215 3220 3224 3228 3230 3232 3234 3236 3238 3239 3240 3241 3242 3243 3244 3245 3246 3247 3247 3248 3249 3249 3249 3249 3250 3250
3161 3165 3169 3173 3175 3177 3178 3181 3184 3187 3191 3197 3185 3200 3203 3205 3206 3211 3216 3219 3222 3226 3228 3230 3232 3233 3234 3236 3237 3238 3240 3241 3243 3244 3244 3245 3245 3246 3247 3246 3247 3246 3246
3161 3164 3166 3169 3172 3174 3174 3174 3182 3185 3190 3193 3199 3200 3195 3198 3202 3207 3212 3215 3218 3220 3222 3224 3226 3227 3229 3231 3233 3235 3236 3237 3238 3240 3241 3242 3242 3243 3244 3244 3244 3244 3243
3160 3163 3165 3168 3170 3170 3171 3172 3179 3185 3187 3188 3192 3194 3195 3197 3200 3205 3208 3210 3212 3215 3217 3219 3221 3222 3225 3227 3228 3229 3230 3232 3233 3235 3236 3238 3239 3239 3240 3240 3240 3240 3240
3158 3161 3164 3166 3169 3170 3172 3174 3175 3179 3182 3185 3188 3190 3192 3194 3197 3200 3202 3204 3207 3209 3211 3213 3216 3218 3220 3222 3224 3224 3224 3225 3227 3228 3230 3231 3233 3234 3234 3235 3235 3235 3235
3155 3159 3161 3164 3166 3168 3170 3173 3175 3177 3181 3183 3185 3186 3187 3189 3191 3193 3195 3197 3200 3203 3205 3207 3209 3211 3213 3216 3217 3218 3219 3217 3219 3222 3224 3224 3225 3228 3230 3229 3227 3228 3228
3153 3156 3159 3161 3164 3166 3168 3170 3172 3174 3177 3178 3180 3181 3182 3183 3184 3186 3187 3190 3192 3195 3199 3201 3203 3206 3207 3210 3211 3211 3211 3211 3212 3213 3215 3217 3219 3221 3222 3221 3221 3220 3222
3150 3152 3154 3156 3159 3162 3164 3166 3168 3169 3172 3172 3174 3176 3177 3178 3179 3180 3181 3182 3184 3187 3191 3193 3196 3198 3200 3201 3201 3202 3203 3205 3205 3206 3207 3209 3211 3213 3213 3213 3212 3212 3214
3146 3148 3149 3150 3152 3154 3157 3159 3160 3163 3165 3166 3168 3169 3170 3172 3173 3175 3176 3177 3177 3179 3182 3185 3188 3190 3190 3191 3190 3191 3193 3195 3194 3196 3197 3199 3199 3200 3201 3202 3203 3204 3204
3142 3144 3145 3146 3146 3149 3149 3151 3152 3154 3156 3157 3159 3160 3162 3164 3165 3167 3168 3170 3171 3172 3173 3175 3177 3179 3182 3180 3182 3183 3184 3184 3186 3187 3187 3188 3190 3192 3192 3192 3192 3193 3192
3136 3138 3139 3140 3140 3143 3144 3145 3145 3146 3147 3148 3149 3150 3152 3153 3155 3157 3159 3160 3162 3163 3165 3167 3168 3169 3171 3171 3172 3174 3176 3175 3175 3177 3178 3179 3181 3183 3184 3185 3185 3185 3185
3128 3130 3132 3132 3133 3135 3136 3137 3138 3139 3140 3140 3140 3141 3141 3142 3144 3145 3147 3149 3152 3154 3155 3157 3157 3158 3160 3161 3162 3163 3164 3163 3163 3166 3168 3170 3172 3173 3174 3175 3175 3174 3174
3124 3124 3124 3125 3127 3127 3128 3130 3131 3132 3132 3133 3132 3132 3132 3133 3133 3134 3136 3139 3140 3141 3143 3146 3146 3148 3149 3151 3151 3151 3151 3152 3152 3154 3157 3158 3160 3163 3164 3165 3165 3163 3162